Regional Weather Roundup
Issued by NWS

Home | Current Version | Previous Version | Graphics & Text | Print | Product List | Glossary On
Versions: 1 2 3 4 5 6 7 8 9 10 11 12 13 14 15 16 17 18 19 20 21 22 23 24 25 26 27 28 29 30 31 32 33 34 35 36 37 38 39 40 41 42 43 44 45 46 47 48 49 50
000
ASUS45 KBOU 300210
RWRCO

WEATHER ROUNDUP FOR COLORADO
NATIONAL WEATHER SERVICE DENVER/BOULDER CO
800 PM MDT THU SEP 29 2016

NOTE: "FAIR" INDICATES FEW OR NO CLOUDS BELOW 12000 FEET WITH NO
SIGNIFICANT WEATHER AND/OR OBSTRUCTIONS TO VISIBILITY.

COZ001>005-013-030-031-300300-
...NORTHWEST COLORADO...

CITY           SKY/WX    TMP DP  RH WIND       PRES   REMARKS
CRAIG          FAIR      57  50  77 CALM      30.38S
HAYDEN         MOCLDY    57  45  62 CALM      30.40S
MEEKER         CLOUDY    58  53  84 CALM      30.39R
MOUNT WERNER   NOT AVBL
STEAMBOAT SPGS MOCLDY    57  47  71 CALM      30.41R
WALDEN           N/A     55  37  50 S8        30.46S
$$

COZ006>008-011-300300-
...WEST CENTRAL VALLEYS...

CITY           SKY/WX    TMP DP  RH WIND       PRES   REMARKS
GRAND JUNCTION FAIR      63  59  87 E5        30.33S
MONTROSE       CLOUDY    60  49  66 W5        30.40S
EAGLE          MOCLDY    64  43  45 SW9       30.39S
RIFLE          CLOUDY    62  54  74 CALM      30.36R
DELTA          NOT AVBL
NUCLA          CLOUDY    55  54  94 CALM      30.44S
$$

COZ017>023-064>068-300300-
...SOUTHWEST COLORADO...

CITY           SKY/WX    TMP DP  RH WIND       PRES   REMARKS
DURANGO        CLOUDY    54  50  86 CALM      30.47F
CORTEZ         CLOUDY    56  53  90 CALM      30.40F
PAGOSA SPRINGS CLOUDY    54  46  74 W6        30.52R
TELLURIDE      CLOUDY    48  44  83 CALM      30.56S
WOLF CREEK PAS CLOUDY    37  36  93 MISG      30.73S
$$

COZ009-010-012-014-032>034-037-058>063-300300-
...CENTRAL COLORADO...

CITY           SKY/WX    TMP DP  RH WIND       PRES   REMARKS
ASPEN          MOCLDY    55  42  61 CALM      30.45R
BUENA VISTA    FAIR      59  29  32 SE3       30.42S
COPPER MTN     MOCLDY    46  32  57 W3        30.69S
BERTHOUD PASS  CLOUDY    41  28  60 N5        30.72S
COTTONWOOD PAS FAIR      59  28  31 SW10      30.55S
GUNNISON       FAIR      57  39  51 W12       30.45S
KREMMLING      FAIR      61  32  33 CALM      30.41S
LEADVILLE      MOCLDY    53  23  31 SE7       30.53F
MONARCH PASS   MOCLDY    43  32  65 W16       30.80S
SALIDA         CLOUDY    67  30  24 CALM      30.48R
SUNLIGHT       CLOUDY    45  43  93 SW8       30.64S
WILKERSON PASS MOCLDY    46  28  49 S8        30.67S
$$

COZ069>075-300300-
...SAN LUIS VALLEY/SANGRE DE CRISTO MOUNTAINS...

CITY           SKY/WX    TMP DP  RH WIND       PRES   REMARKS
ALAMOSA        FAIR      60  37  42 NW3       30.42R
LA VETA PASS   FAIR      52  27  37 MISG      30.59S
SAGUACHE       MOCLDY    61  36  39 NW9       30.45S
$$

COZ035-036-038>040-300300-
...NORTHERN COLORADO FRONT RANGE...

CITY           SKY/WX    TMP DP  RH WIND       PRES   REMARKS
DENVER INTL AP FAIR      67  39  35 SE6       30.24R
DMNS CITY PARK   N/A     66  42  41 E1G10     30.23S
AURORA         PTCLDY    69  33  26 S3        30.25S
FRONT RANGE AP PTCLDY    70  30  23 S7        30.25S
ERIE MUNI ARPT FAIR      59  40  48 CALM      30.21R
BOULDER MUN AP FAIR      68  41  37 SW3       30.22R
CENTENNIAL     FAIR      70  33  25 S12       30.26S
BROOMFIELD     PTCLDY    68  37  32 CALM      30.25
FORT COLLINS   FAIR      68  41  37 N6        30.19R
LONGMONT       FAIR      63  47  55 CALM      30.22R
$$

COZ041-046-047-076>085-087-088-300300-
...PIKES PEAK/PALMER DIVIDE AND SOUTHERN FOOTHILLS...

CITY           SKY/WX    TMP DP  RH WIND       PRES   REMARKS
COLO. SPRINGS  FAIR      65  33  30 E7        30.34R
A. F. ACADEMY  FAIR      64  33  30 S7        30.35R
SCHRIEVER AFB  NOT AVBL
ELLICOTT       NOT AVBL
FALCON         FAIR      59  32  36 S9        30.39R
FORT CARSON    FAIR      70  34  26 W3        30.30S
LIMON          FAIR      63  41  44 SE15      30.30R
MONUMENT HILL  FAIR      61  32  33 S16G22    30.38R
TRINIDAD       FAIR      68  35  29 S12       30.31R
$$

COZ042>045-048>051-090-091-300300-
...NORTHEAST COLORADO...

CITY           SKY/WX    TMP DP  RH WIND       PRES   REMARKS
GREELEY ARPT   FAIR      63  39  42 S5        30.18R
AKRON          FAIR      64  40  41 SE16      30.26R
BURLINGTON     FAIR      62  41  46 SE18      30.28S
WRAY           NOT AVBL
STERLING       FAIR      68  43  40 SE14G21   30.21R
HOLYOKE        FAIR      61  43  51 SE9       30.27S
FORT MORGAN    FAIR      68  39  34 SE14G21   30.23R
$$

COZ086-089-092>099-300300-
...SOUTHEAST COLORADO...

CITY           SKY/WX    TMP DP  RH WIND       PRES   REMARKS
PUEBLO         FAIR      70  32  24 E7        30.21S
LA JUNTA       FAIR      73  42  32 SE15      30.22R
LAMAR          FAIR      67  43  41 SE13      30.23R
SPRINGFIELD      N/A     62  44  51 SE15      30.30R
$$



USA.gov is the U.S. government's official web portal to all federal, state and local government web resources and services.